Location: Aghk�ilisa
(40.0189°N, 45.0097°E)
Time: 16:55:22
(UTC+00:00)

ADEOS Rocket - Pass Details

Date: 21 October 2019
Orbit: 859 x 1306 km, 98.7° (Epoch: 11 November)

Event Time Altitude Azimuth Distance (km) Brightness Sun altitude
Rises 16:09:46 0° 18° (NNE) 4,274 6.2 -23.2°
Reaches altitude 10° 16:12:41 10° 24° (NNE) 3,270 5.6 -23.7°
Maximum altitude 16:19:58 49° 97° (E) 1,512 3.5 -25.1°
Enters shadow 16:20:33 48° 112° (ESE) 1,522 3.5 -25.2°
Exits shadow 16:23:24 29° 156° (SSE) 1,998 4.3 -25.7°
Drops below altitude 10° 16:26:37 10° 171° (S) 2,993 5.4 -26.4°
Sets 16:29:10 0° 177° (S) 3,886 6.0 -26.8°
